Wind_Speed
32 31 30 30 32 34 36 38 39 40 42 43 43 42 39 38 35 28 25 27 27 26 26 25 26 27 29 31 33 34 32 30 30 29 26 25 24 24 22 22 21 22 23 22 19 17 17 18 21 24 25 23 21 18 17 16 15 16 18 18 17 17 17 15 16 16 16 17 17 17 17 18 18 18 18 18 18 17 18 20 20 19 19 19 18 18 18
32 31 31 30 31 33 35 37 37 38 40 40 40 39 38 37 34 29 25 24 25 24 22 21 21 22 22 24 28 32 34 32 32 32 29 27 25 24 23 23 23 23 24 25 24 22 21 21 22 25 26 26 25 21 19 19 19 19 20 20 19 19 19 17 17 17 18 18 17 17 17 18 19 20 20 19 18 17 18 18 18 18 18 18 18 19 20
32 31 30 30 30 32 34 36 37 37 37 38 38 37 37 36 34 31 27 23 24 24 22 21 20 19 18 19 22 27 32 34 35 35 33 29 26 26 26 25 26 26 26 26 26 26 25 24 24 25 26 26 26 24 23 22 23 23 24 23 22 21 21 20 19 19 19 19 17 17 17 18 19 20 20 18 17 17 17 17 16 17 18 19 19 21 22
31 30 30 30 30 31 33 34 35 36 35 36 37 36 37 36 34 32 29 25 24 25 25 24 23 21 20 19 19 22 27 31 35 37 36 33 29 27 27 27 27 28 27 28 28 28 27 26 25 25 24 23 23 24 24 24 25 26 27 26 25 24 23 22 21 20 20 19 19 18 18 19 20 20 19 18 17 17 16 16 17 18 19 20 21 22 23
28 28 28 29 30 30 32 33 34 34 34 34 34 34 34 34 33 33 31 28 25 26 27 26 24 23 22 21 21 21 22 25 28 30 32 35 33 30 29 29 29 29 30 31 31 30 29 28 27 26 24 23 23 24 25 26 27 28 29 29 27 26 25 24 22 22 21 21 21 21 21 21 21 20 20 19 18 17 16 17 18 19 20 20 21 22 23
26 25 27 29 30 31 32 33 33 33 32 32 31 31 31 31 32 33 33 31 29 28 26 25 24 23 22 23 24 24 22 22 24 25 28 34 36 34 32 32 32 33 34 34 33 32 31 30 29 27 25 25 25 25 26 28 29 31 31 30 28 27 26 25 24 23 23 23 23 23 24 24 22 21 21 20 19 18 18 19 20 20 21 21 21 22 22
26 25 27 29 30 33 34 34 34 33 31 31 30 29 29 29 29 30 31 32 32 30 25 23 23 24 23 23 26 26 25 24 25 28 31 35 37 37 35 35 36 36 36 35 34 33 32 31 30 28 27 27 27 27 27 28 30 33 34 32 30 28 26 26 25 24 24 24 24 25 25 25 24 23 23 22 21 20 21 22 22 21 21 21 22 22 23
27 26 27 28 30 33 34 34 35 34 31 31 30 28 27 27 26 26 27 29 31 31 28 25 24 24 23 23 26 27 27 26 27 29 32 35 37 37 35 35 35 35 34 33 33 33 33 32 30 29 29 30 29 28 28 28 30 34 36 34 31 28 28 28 26 25 24 25 25 25 25 26 26 26 26 24 23 23 24 23 22 21 21 22 23 24 25
28 27 27 27 29 31 33 33 34 34 32 31 29 26 24 24 24 23 23 25 27 29 29 28 27 25 23 23 25 28 29 29 28 29 30 32 33 32 32 32 31 30 30 29 28 29 30 30 29 28 28 27 26 27 29 29 30 34 36 34 32 31 30 29 27 25 24 25 25 25 26 27 28 28 27 26 25 25 25 22 21 20 20 20 23 25 25
28 28 27 27 27 29 31 32 32 32 32 31 30 27 24 24 24 23 22 23 24 25 27 29 30 28 24 23 25 28 29 30 30 30 30 30 30 30 30 30 30 30 29 27 26 26 28 29 29 28 26 23 22 24 28 31 32 33 34 34 33 33 33 30 26 25 26 26 25 26 27 28 29 29 28 27 26 26 24 21 19 17 17 18 23 25 25
27 27 27 27 28 28 28 28 30 31 31 32 32 29 25 24 25 25 24 24 24 23 23 25 28 29 27 25 26 27 29 30 30 30 30 29 29 30 30 30 31 30 28 27 27 26 27 28 29 29 28 25 23 23 27 32 34 34 34 35 35 35 34 31 27 27 28 27 26 27 28 28 28 28 27 26 25 25 25 21 18 18 18 20 24 26 24
24 25 25 26 27 27 26 26 27 29 30 31 31 29 27 26 26 25 25 25 24 22 20 21 24 27 30 30 29 28 29 29 29 27 26 26 26 26 28 29 30 29 26 26 26 25 26 28 30 31 31 29 27 25 27 32 35 34 34 36 37 37 35 31 30 30 30 28 29 30 29 28 28 27 24 22 21 21 22 21 20 21 22 24 24 24 23
20 21 22 23 24 25 25 25 26 28 29 30 29 29 29 29 26 25 25 25 25 23 20 20 24 26 29 31 31 29 28 27 27 26 25 24 23 22 23 24 26 26 26 26 26 25 23 23 25 29 31 31 29 27 28 30 33 33 33 35 37 37 35 33 33 34 32 30 32 32 30 28 28 25 21 19 18 17 18 19 21 23 24 24 22 22 24
19 19 19 19 20 21 22 22 23 26 29 29 28 30 31 31 28 27 26 25 26 25 23 23 26 27 27 29 30 30 28 26 26 26 26 26 25 24 23 23 24 25 26 27 28 27 24 20 18 20 24 27 27 27 27 27 28 30 32 35 37 37 36 36 36 36 33 32 33 32 29 29 27 24 22 21 20 19 19 20 21 23 23 23 22 23 25
21 19 18 17 17 17 17 18 19 22 24 26 27 29 31 31 30 30 28 27 26 26 26 28 29 29 29 29 30 30 29 27 26 26 28 29 29 27 26 25 24 26 27 29 30 30 28 24 18 17 19 23 24 24 23 24 26 29 31 34 36 36 36 36 37 36 34 32 32 31 29 29 28 26 24 23 21 21 22 23 23 24 25 25 25 26 26
21 20 18 17 17 16 16 16 17 20 22 24 27 28 29 30 31 31 31 30 28 27 28 30 31 32 32 32 31 30 28 27 25 25 26 29 30 30 28 26 25 25 27 29 30 31 30 26 22 20 21 23 23 23 23 24 26 29 31 33 34 34 35 35 36 36 34 31 31 31 30 29 28 27 25 23 22 22 23 23 24 24 26 27 27 27 27
19 19 18 18 18 17 16 16 18 20 21 23 25 26 28 29 30 31 32 32 30 29 29 30 32 33 34 33 32 31 29 27 26 24 25 27 29 31 30 27 25 25 26 27 27 28 28 26 23 23 24 24 24 25 25 25 26 29 32 34 34 34 35 36 36 36 35 32 31 30 30 29 28 26 24 23 23 23 24 24 24 25 27 28 28 27 27
18 17 17 16 16 16 16 16 17 19 19 20 21 22 23 25 28 30 33 34 34 34 33 32 33 34 35 34 33 32 31 29 27 25 25 26 28 31 31 31 29 28 27 26 26 26 26 25 24 24 25 25 25 26 27 27 28 30 33 35 35 35 36 37 37 37 36 34 32 31 31 31 29 27 26 24 24 25 25 26 26 27 27 27 27 27 28
18 17 16 16 16 16 16 16 16 17 18 19 20 20 20 21 23 26 29 32 35 37 37 36 35 36 36 36 34 33 32 30 28 28 28 29 30 32 33 34 34 33 31 28 26 26 26 26 25 25 25 25 26 27 28 29 30 31 33 34 35 35 36 37 37 36 35 35 34 33 32 32 31 29 27 26 26 26 26 26 27 27 27 27 27 28 30
20 19 18 18 18 18 17 17 17 17 17 18 19 20 21 21 22 24 25 28 31 34 37 38 38 38 38 37 35 34 33 31 31 31 31 32 33 34 35 38 39 38 35 32 29 28 29 29 28 27 27 27 27 28 29 30 30 31 33 34 33 34 36 37 36 35 35 35 35 35 34 34 33 31 29 28 27 27 27 27 27 27 27 28 29 31 32
20 19 19 19 18 18 18 18 18 17 17 16 16 17 18 20 21 23 24 25 27 30 32 34 35 35 35 34 33 32 32 32 32 31 32 32 33 35 38 40 42 41 39 36 34 32 32 32 32 31 30 29 28 28 29 29 30 31 32 32 32 32 34 37 37 36 35 35 36 36 36 36 34 32 30 29 28 28 28 29 29 29 29 31 32 33 34
19 19 19 18 18 18 18 18 18 18 17 16 15 15 15 16 18 20 21 23 24 25 26 28 28 29 29 29 28 29 30 30 30 30 30 30 31 34 38 40 42 42 41 40 38 37 36 36 35 34 33 32 31 30 29 28 29 29 30 30 30 30 31 33 34 34 33 33 35 37 37 36 34 32 31 30 30 30 30 31 31 31 32 32 33 34 34
17 18 18 18 18 18 18 18 18 18 18 17 17 16 15 15 15 17 19 21 22 23 23 24 24 24 24 25 25 26 27 28 28 28 28 29 29 31 33 35 36 38 39 40 40 39 38 38 37 36 35 33 31 31 29 28 28 28 28 29 30 29 29 30 31 32 32 32 33 34 35 34 33 33 32 31 31 32 32 32 32 33 33 33 34 35 35
16 17 18 18 18 18 18 17 17 17 18 18 18 17 17 16 15 16 17 18 20 21 21 22 22 22 23 24 24 25 26 27 28 29 29 29 29 28 29 29 30 32 35 37 39 40 39 38 37 37 36 34 32 31 30 30 30 30 29 30 31 30 29 29 30 31 31 31 31 32 33 33 33 33 32 32 32 32 33 33 32 33 33 34 35 36 35
14 15 16 17 17 17 17 17 17 18 18 18 18 18 18 17 16 16 16 17 18 19 20 21 21 21 22 23 24 24 25 26 27 28 29 29 29 28 28 28 28 30 32 35 37 38 38 37 37 37 36 35 33 32 31 32 33 33 32 33 32 30 28 29 29 29 29 30 31 32 32 32 32 32 32 32 32 32 32 32 32 33 34 35 36 36 35
13 14 15 16 17 16 16 17 17 18 19 19 19 20 20 20 19 18 17 17 18 19 20 21 21 21 21 22 23 24 24 24 24 25 27 29 29 28 28 28 28 29 30 32 34 36 37 37 36 36 35 34 34 33 32 32 34 35 34 33 32 30 28 28 28 28 28 29 30 30 30 31 31 30 31 31 31 32 32 32 33 34 35 35 35 35 34
12 14 15 17 17 17 17 17 17 18 19 19 20 21 22 22 22 22 21 20 20 20 21 22 22 22 21 21 21 22 23 23 23 23 25 27 28 28 28 28 28 28 29 30 32 33 34 36 37 36 35 34 35 35 33 31 33 36 37 34 32 30 28 27 27 28 28 28 28 29 29 29 29 29 30 30 31 32 32 32 33 34 34 34 34 34 33
11 13 15 16 17 18 17 17 17 17 18 18 19 20 20 21 21 21 21 21 21 21 22 22 23 23 22 22 21 21 21 22 22 22 23 24 25 26 27 27 27 28 28 29 30 31 31 34 36 36 35 35 36 35 31 28 29 34 36 34 30 27 26 26 27 28 28 28 29 29 29 29 29 29 30 30 31 31 32 32 32 33 33 33 33 32 31
12 13 15 16 17 17 16 16 16 16 17 17 18 18 19 19 19 20 20 20 20 20 21 21 22 23 23 22 22 21 21 21 21 21 21 22 22 23 25 26 27 27 27 28 29 29 28 30 33 34 33 33 34 34 31 28 26 27 27 26 25 24 25 27 28 28 29 29 29 29 29 29 29 29 30 30 31 31 31 31 32 32 32 32 31 30 29
12 13 14 15 15 15 15 15 15 15 15 16 17 18 18 18 18 18 19 18 18 19 19 20 22 22 23 23 22 22 21 21 21 20 21 22 21 20 21 23 24 25 26 27 28 28 27 27 29 31 31 30 29 29 29 29 28 26 25 24 23 24 26 27 28 28 28 29 29 29 28 28 29 29 30 30 30 30 31 31 31 31 31 31 30 29 29
12 13 13 14 13 13 13 13 14 14 15 16 16 17 17 17 17 17 17 17 18 18 18 19 21 22 22 23 23 23 22 22 22 21 21 23 24 23 21 22 24 25 26 26 26 26 27 27 28 30 32 32 29 26 26 26 26 25 25 24 23 24 25 26 27 28 28 29 29 28 28 28 29 30 30 30 30 30 30 30 30 30 30 30 29 29 29
13 13 13 13 13 13 13 14 14 15 15 16 16 17 17 17 17 17 17 17 17 17 17 18 19 19 21 22 23 24 24 24 24 23 22 23 25 26 25 24 24 25 27 26 25 24 26 28 28 29 30 30 28 26 25 25 25 24 24 24 24 25 25 26 27 28 29 29 29 28 29 29 30 31 31 31 31 30 30 30 30 30 31 30 30 30 30
10 12 14 14 14 15 15 15 15 15 15 16 16 17 17 17 17 17 16 17 17 17 17 18 18 19 20 21 21 22 23 25 26 26 25 24 24 26 26 26 25 25 26 26 25 24 24 26 28 28 27 25 25 25 26 26 26 26 26 27 27 28 28 29 29 29 29 29 29 30 30 31 32 32 32 32 32 31 31 31 31 31 32 32 32 31 31
7 9 10 12 13 13 14 14 14 14 14 15 15 16 16 16 16 16 16 16 16 16 17 17 18 19 21 21 20 20 21 23 26 27 27 26 25 25 26 28 29 29 27 26 27 27 26 25 26 28 28 27 26 26 26 27 27 28 28 29 29 30 30 30 30 31 31 31 31 31 32 33 33 33 33 33 33 32 32 32 33 33 34 34 34 34 34
7 7 8 9 10 11 12 12 12 13 14 15 15 16 16 16 17 17 17 18 18 17 17 17 17 18 20 21 21 20 20 21 24 26 29 29 28 27 27 29 32 33 32 30 29 30 29 27 26 27 29 30 29 28 28 28 29 29 30 31 31 31 32 32 32 32 32 32 32 33 33 34 34 35 36 36 35 34 33 34 35 35 36 37 37 36 36
6 6 7 8 9 10 11 11 12 13 14 15 16 17 17 18 18 19 19 19 19 19 19 18 18 18 19 20 22 22 22 21 22 24 27 30 32 31 30 30 32 34 34 34 33 32 31 29 27 27 28 28 29 29 30 30 31 32 32 32 33 33 33 33 33 34 34 34 34 34 35 36 37 37 36 36 34 33 32 32 32 33 34 36 38 38 38
5 6 7 7 8 9 10 10 11 12 13 14 16 16 17 18 19 20 20 21 21 21 21 21 20 19 19 20 21 23 24 23 22 22 25 29 32 33 33 32 32 33 34 35 36 36 35 33 32 32 31 29 29 29 30 31 32 33 34 34 34 34 34 34 35 35 35 36 36 35 34 34 35 35 34 33 33 32 32 33 33 32 32 34 37 39 39
5 6 6 7 8 9 9 10 11 11 12 13 14 15 16 17 18 19 20 20 21 22 22 22 22 22 21 21 22 23 24 25 24 24 24 26 29 33 34 35 34 34 34 34 35 36 36 36 36 36 36 35 33 32 32 32 33 34 34 34 34 34 34 35 35 36 37 37 37 35 32 30 30 31 32 33 34 34 34 35 34 33 32 33 35 38 39
6 6 7 8 9 9 10 10 11 12 13 14 14 15 15 16 16 17 18 19 20 21 22 22 23 24 24 24 24 24 24 25 26 26 25 25 26 29 32 35 36 36 35 34 34 34 34 35 35 36 36 36 36 35 35 34 34 34 34 34 34 34 34 34 35 37 37 37 37 36 35 34 33 33 34 33 33 34 34 34 33 34 34 35 36 37 38
7 8 8 9 9 10 11 11 12 13 14 14 15 15 15 15 15 15 15 16 17 19 20 21 22 23 24 25 26 26 26 26 26 27 28 27 26 26 28 30 32 34 36 36 36 35 35 36 36 37 37 37 37 37 36 36 35 35 34 34 34 34 35 35 36 36 37 36 35 35 35 35 35 35 35 34 34 35 35 34 33 32 35 37 39 39 39
10 10 10 10 11 11 11 12 12 13 14 15 15 14 14 14 13 12 12 12 13 15 16 18 20 21 23 24 26 27 28 28 28 28 29 29 29 28 27 27 28 30 32 33 35 36 37 37 37 38 39 39 39 39 39 39 39 37 36 35 36 36 37 38 38 37 37 36 35 35 34 35 35 35 35 35 35 36 36 35 33 31 32 36 40 42 43
12 12 13 13 14 13 13 13 14 14 15 15 15 14 14 14 13 12 11 11 11 11 11 12 14 16 19 21 23 25 27 28 30 30 30 31 31 31 30 29 29 28 29 29 30 32 33 34 34 35 36 37 38 39 40 41 41 40 39 38 37 37 37 39 39 39 38 37 36 36 35 35 34 34 33 33 34 34 33 33 32 31 31 34 39 43 45
14 15 15 16 16 16 16 15 15 15 16 16 16 16 15 15 14 14 13 12 12 11 10 10 10 11 13 16 19 21 24 26 28 30 31 31 31 32 31 31 31 30 29 28 28 28 28 28 28 29 29 30 31 32 34 36 37 38 39 38 36 35 35 37 38 38 38 37 36 35 34 33 32 32 32 31 31 31 31 32 31 30 31 33 37 40 42
15 16 17 17 17 18 18 17 17 17 17 17 17 17 17 16 16 15 14 13 13 12 12 11 11 11 11 13 15 18 21 23 25 28 30 31 32 31 32 32 32 31 30 29 28 27 27 26 26 26 26 26 26 26 26 28 30 33 36 37 36 34 34 35 35 35 34 33 32 32 32 32 32 31 31 30 29 29 29 29 28 28 29 31 34 37 39
16 17 17 17 17 17 18 18 18 18 18 17 17 18 18 18 17 16 15 14 14 13 13 13 13 12 13 13 14 16 18 20 23 25 28 30 31 31 31 31 32 32 31 30 29 28 28 27 26 26 26 25 23 23 23 24 26 28 31 33 33 32 31 31 31 31 31 31 32 33 33 33 33 32 31 30 28 27 26 26 27 28 29 32 34 37 38
16 16 17 17 17 17 17 18 18 18 18 18 18 18 19 20 19 18 17 16 15 14 14 13 13 14 14 14 15 15 16 18 20 23 26 29 31 30 30 30 30 30 30 30 29 29 28 27 26 25 25 24 23 23 23 22 22 23 24 26 27 28 27 27 28 28 29 30 31 32 32 32 31 31 29 27 26 26 27 27 29 30 31 33 35 36 37
15 16 16 17 17 17 17 17 18 17 18 18 18 18 19 21 21 20 19 18 17 15 15 15 14 14 15 15 16 16 15 16 17 19 22 25 28 29 29 28 28 28 28 28 28 27 27 26 25 25 24 24 25 25 24 23 23 22 22 21 22 24 25 26 27 28 28 29 29 30 29 29 28 27 26 25 26 27 28 29 31 32 34 35 35 35 33
15 15 16 16 17 17 17 18 18 18 18 18 18 18 18 20 21 22 21 19 18 17 16 15 15 15 15 16 16 16 15 15 15 16 18 20 23 25 26 27 26 26 26 26 26 26 26 26 25 25 25 25 25 25 25 25 25 25 24 23 22 21 21 22 23 24 24 25 25 25 25 25 24 24 25 27 28 30 31 33 34 34 34 33 31 29 27
15 15 16 16 17 17 18 18 18 18 18 18 18 18 17 18 20 22 22 20 19 18 17 16 15 15 15 16 16 16 15 15 14 13 15 18 19 21 23 25 25 24 23 23 23 23 23 23 23 23 23 24 25 25 24 24 24 24 24 23 21 20 20 19 19 19 20 21 22 23 24 25 26 27 29 30 31 31 31 30 29 28 26 25 24 24 24
15 15 16 16 16 17 18 18 18 18 18 17 17 17 17 16 18 20 21 20 19 18 17 16 15 15 16 16 16 16 15 14 13 12 15 18 18 18 20 21 21 20 19 18 18 19 20 19 19 19 19 20 21 20 20 20 21 21 21 21 20 19 19 19 19 19 21 22 23 25 26 27 27 27 26 25 25 24 23 22 21 21 21 22 22 23 23
15 15 15 16 16 17 18 18 18 17 17 17 16 17 16 16 16 17 19 19 18 18 17 16 15 16 16 16 17 16 14 13 12 12 15 18 17 16 17 17 17 17 18 18 19 21 21 21 20 20 19 19 19 20 20 20 20 19 19 18 18 18 18 19 20 21 22 23 23 23 23 22 21 20 19 18 18 18 19 19 20 20 20 21 21 22 22
15 15 15 15 16 17 17 18 17 16 16 15 15 15 15 14 14 16 17 17 17 17 16 16 16 16 16 16 16 15 13 12 12 11 13 15 15 14 14 15 16 17 18 19 20 21 22 22 22 21 21 20 20 20 19 19 18 17 17 17 17 17 18 19 19 19 19 19 18 17 16 16 15 16 16 17 18 18 19 20 20 21 21 22 22 23 24
Wind_Direction
175 178 181 185 187 186 186 189 192 194 196 199 202 203 205 208 207 207 212 215 216 222 228 230 231 229 224 222 222 225 224 214 208 211 214 215 216 214 211 211 213 214 218 221 221 217 213 213 216 220 220 221 226 233 239 238 239 245 250 253 244 225 217 220 223 228 236 238 238 237 235 233 229 225 226 230 232 232 234 236 236 235 233 232 232 236 243
173 176 179 183 186 185 186 190 194 196 197 199 202 204 205 207 206 205 207 207 205 209 215 220 227 231 229 225 222 223 224 219 210 209 211 214 214 213 211 213 217 219 223 227 229 230 229 228 228 227 228 232 236 242 247 242 235 236 243 248 242 230 225 226 226 230 235 237 238 240 237 235 233 229 227 229 230 230 231 233 233 232 232 233 235 239 244
171 175 179 181 184 185 186 190 194 196 197 199 202 204 207 208 206 204 205 202 195 196 200 202 207 212 215 218 219 219 221 220 215 211 211 211 211 213 213 213 216 221 225 229 232 234 236 237 238 236 237 239 242 247 252 248 237 232 236 241 240 235 232 231 229 232 235 236 239 242 240 238 235 229 224 224 224 226 229 230 231 232 234 236 239 242 246
171 173 178 181 182 184 186 190 193 194 195 197 200 204 207 208 206 204 204 200 191 190 194 197 199 202 206 212 215 214 216 219 218 218 217 213 211 214 216 215 216 220 224 229 233 236 240 243 245 245 245 243 242 244 245 241 234 231 233 234 235 234 232 230 230 232 234 234 236 240 239 236 232 226 220 218 221 224 228 230 232 234 237 239 242 245 248
171 172 177 180 181 181 184 189 193 194 194 197 200 203 206 208 208 206 204 200 197 197 200 202 204 208 211 215 215 210 208 211 212 212 212 210 210 215 217 216 217 220 224 229 233 236 240 243 245 245 241 236 236 237 235 230 227 228 231 232 232 230 228 227 228 230 232 233 234 236 235 232 230 227 223 221 223 224 227 232 236 238 239 241 243 246 249
171 172 176 179 180 181 185 188 191 193 195 198 200 203 206 209 210 209 207 205 205 206 208 209 209 209 211 215 213 204 199 202 200 196 197 201 206 212 215 215 217 221 226 231 234 236 238 240 242 243 239 237 237 236 234 230 226 225 229 232 231 228 225 224 225 228 231 232 232 234 235 233 231 231 229 228 228 228 232 236 239 240 241 242 245 248 251
177 179 180 182 182 184 187 189 190 191 194 197 199 202 205 209 213 214 213 212 212 211 210 209 207 205 208 214 211 201 196 198 198 197 197 199 204 210 212 216 221 226 230 234 236 237 237 238 240 241 242 244 243 237 235 234 231 228 228 230 229 227 224 224 225 227 229 232 234 236 237 234 231 231 232 233 233 234 237 239 240 242 244 247 251 253 255
183 186 187 188 187 188 190 192 193 192 193 196 197 199 203 206 211 216 217 218 219 217 213 211 210 207 207 211 211 204 199 200 202 204 205 206 208 210 213 219 226 231 236 239 240 239 238 237 237 240 246 249 246 237 231 231 232 231 230 230 231 229 225 224 224 224 228 232 235 238 237 232 230 232 234 236 237 238 239 241 242 245 250 255 259 261 263
188 192 194 193 191 191 193 194 195 196 196 198 198 199 204 207 209 213 215 216 221 223 218 215 216 215 211 209 210 207 203 204 207 209 211 214 215 217 220 226 233 238 242 245 244 243 242 239 238 243 249 249 243 235 229 227 229 230 230 232 234 232 228 225 222 221 226 232 236 238 234 228 228 232 235 237 238 239 240 242 246 251 258 266 270 271 272
193 196 198 196 193 193 195 195 198 200 201 202 202 201 207 213 212 212 212 212 219 225 224 221 221 222 219 213 210 208 206 207 211 213 216 218 220 223 226 231 235 237 239 239 239 240 242 243 244 247 245 238 233 233 230 228 228 228 229 231 233 233 231 226 220 219 223 230 234 232 227 225 227 232 235 237 238 240 243 246 249 255 262 268 273 277 280
196 200 202 201 199 200 201 201 205 207 206 207 207 204 208 216 216 214 212 211 215 222 227 227 227 228 228 222 215 211 210 210 212 215 218 221 223 227 229 232 234 235 236 237 237 238 242 244 246 245 240 237 241 243 237 231 228 227 227 229 231 233 232 227 220 220 223 227 228 226 223 226 231 234 238 242 244 246 245 245 248 252 252 256 265 275 280
195 199 204 206 206 210 211 211 214 215 212 212 211 209 212 216 216 216 214 210 211 216 222 226 226 227 228 226 220 216 214 213 213 214 217 220 223 227 230 233 235 237 237 237 235 237 241 244 245 244 242 244 250 251 243 235 231 228 227 228 230 231 230 226 222 222 222 221 224 225 226 230 237 240 245 249 249 245 241 241 246 252 254 256 264 272 275
189 192 199 204 208 214 217 219 221 221 219 218 218 217 218 218 218 219 217 213 212 213 216 222 224 225 226 227 225 222 219 218 219 219 220 222 225 228 231 234 236 236 235 232 232 236 242 246 248 246 244 245 249 248 242 237 233 229 225 226 228 228 226 223 222 223 222 220 223 226 228 233 239 240 241 244 242 238 240 243 247 252 255 258 263 268 270
197 196 199 204 207 210 214 218 222 222 221 222 222 222 223 222 221 221 221 220 219 218 219 223 225 227 228 230 231 229 225 222 223 226 228 229 230 232 234 237 238 236 233 232 234 240 246 250 251 245 241 242 244 245 244 239 235 231 225 222 222 222 220 220 221 223 224 223 225 228 231 234 237 236 239 247 248 242 241 243 247 252 255 256 260 265 269
207 203 199 202 206 207 209 214 219 220 220 220 222 223 225 225 224 223 223 226 228 227 226 226 228 231 233 234 235 235 232 229 229 231 231 232 234 235 236 237 238 236 234 233 236 242 247 251 251 242 235 235 237 241 243 238 232 231 229 225 222 221 220 220 223 226 226 225 226 230 233 235 236 239 246 251 249 243 241 244 248 252 254 255 261 267 270
203 203 202 207 216 218 217 219 221 222 222 223 225 227 228 229 229 228 226 227 231 234 234 232 231 233 236 238 239 240 240 239 237 235 233 232 234 236 236 236 235 233 233 234 235 238 243 246 245 238 235 235 235 237 238 236 232 231 229 226 225 225 224 224 227 230 230 229 229 233 237 238 237 240 246 247 244 244 246 249 251 253 255 257 263 268 271
204 209 211 216 223 226 224 222 222 222 223 225 228 231 233 234 234 232 229 228 230 235 238 238 236 236 238 241 243 245 247 247 245 242 238 233 233 234 234 232 229 225 225 227 229 232 235 238 239 237 236 237 237 236 235 235 236 234 231 227 226 228 228 228 229 230 231 232 232 235 240 240 237 238 242 243 244 247 249 250 252 254 256 259 264 268 272
212 213 213 214 220 225 226 222 220 222 223 223 225 228 231 233 235 234 233 232 232 235 238 240 241 240 240 243 246 248 250 250 249 247 243 237 234 234 233 229 225 220 217 218 223 227 230 232 233 236 238 240 240 240 237 235 235 235 233 231 229 231 231 230 229 230 230 231 232 234 237 238 238 239 241 244 246 248 250 251 253 255 258 262 267 272 276
211 214 215 216 220 225 226 222 220 222 224 225 224 224 224 225 228 231 233 234 235 236 238 241 243 243 242 243 245 248 251 252 252 250 247 244 240 238 235 231 226 219 215 216 220 225 229 231 231 234 237 240 241 242 241 239 237 235 234 232 231 232 234 232 230 228 228 229 230 232 235 237 238 240 242 246 250 252 253 254 256 258 262 266 270 274 277
214 218 221 224 226 228 227 223 222 224 227 228 228 228 227 226 227 229 230 232 234 236 238 240 243 244 244 244 245 247 248 250 250 250 248 246 243 241 238 233 228 222 219 220 223 226 229 231 232 233 237 240 242 243 244 244 242 239 236 234 234 235 236 234 229 226 226 228 229 230 232 235 237 239 242 247 251 253 254 256 259 262 266 269 272 275 276
216 219 221 224 227 228 227 225 225 226 227 227 227 228 229 230 230 229 230 231 233 234 237 239 241 243 245 245 244 245 246 246 247 246 245 244 242 239 237 234 231 228 226 228 230 231 230 231 233 236 238 241 244 245 245 246 245 242 238 235 235 237 237 234 228 224 225 227 228 228 229 232 235 239 243 248 251 253 255 257 260 263 267 270 272 275 277
212 213 214 216 218 221 223 223 224 223 222 222 224 226 228 230 231 230 229 229 231 233 235 238 240 241 243 243 242 242 243 244 243 242 242 242 240 237 236 236 237 236 235 235 237 236 234 232 234 237 240 242 243 244 245 245 245 243 240 234 231 232 231 227 222 221 223 225 226 226 228 231 234 239 243 247 249 252 255 258 260 263 266 270 273 276 279
205 206 207 209 212 215 218 220 221 221 221 223 226 228 231 233 233 232 230 230 231 232 235 237 239 240 241 241 240 239 239 239 239 240 240 241 241 239 238 238 239 240 239 238 238 238 235 232 234 237 240 242 244 244 244 243 243 243 240 234 228 224 221 219 218 220 223 224 226 227 228 231 235 239 242 245 248 252 255 258 262 265 268 272 275 277 280
198 202 205 208 211 214 217 220 222 223 224 226 227 229 231 233 234 234 233 231 231 232 234 236 237 238 239 239 239 239 239 239 239 239 239 241 243 243 242 240 238 238 237 236 235 236 235 233 235 238 241 243 244 245 243 242 242 243 242 238 231 223 219 219 222 224 224 224 225 226 227 230 233 238 242 245 249 253 257 260 264 267 270 273 275 277 279
199 203 206 208 210 213 216 220 222 224 225 226 226 227 227 228 229 231 233 233 233 233 233 233 234 235 237 238 238 239 240 240 239 239 238 240 241 242 241 239 237 236 235 234 234 234 235 235 237 240 243 245 246 246 244 241 240 242 243 240 233 224 220 221 223 224 223 221 221 224 227 231 235 240 244 248 252 256 259 262 266 269 271 274 276 278 279
205 207 207 207 207 208 211 215 218 221 223 224 224 225 224 223 224 229 234 238 239 239 238 236 235 235 236 238 239 239 240 240 239 238 237 237 238 239 239 238 236 235 236 235 235 236 236 236 238 241 243 245 246 247 247 243 240 239 238 234 228 222 220 222 224 225 225 224 226 229 233 237 241 245 248 252 255 259 262 265 268 270 273 275 276 277 277
213 211 207 205 206 208 211 213 216 219 221 223 224 225 226 227 230 235 240 242 243 243 243 242 241 240 239 240 242 241 240 239 238 237 236 236 236 238 239 238 237 236 237 237 237 238 239 239 239 240 242 244 246 247 249 246 240 235 232 228 223 220 222 224 226 227 229 231 234 238 241 244 247 250 252 255 258 260 264 267 269 271 273 274 275 276 275
212 208 205 205 206 208 210 212 214 217 218 220 223 225 228 231 234 238 243 244 243 242 242 243 244 243 242 242 242 242 242 240 238 236 235 234 235 237 240 240 239 237 237 237 238 239 240 239 239 240 241 243 244 245 247 246 236 225 220 218 217 219 222 224 226 229 232 236 239 242 244 247 249 252 254 256 259 262 265 268 270 271 273 273 274 274 274
212 209 207 207 208 210 212 215 218 221 223 225 227 229 232 236 238 241 244 245 245 242 240 240 242 243 243 243 242 242 242 242 241 238 232 230 233 235 236 237 236 235 235 235 236 237 237 236 236 238 238 238 237 237 238 238 229 218 214 215 217 220 223 226 229 232 236 238 241 244 246 249 251 253 255 258 260 263 265 267 269 271 272 272 272 272 273
214 214 215 216 216 218 219 221 224 227 229 232 234 235 237 239 241 243 244 246 246 245 242 239 240 241 242 242 241 240 241 242 243 240 231 226 227 229 230 232 232 230 230 231 233 234 234 233 233 234 231 227 227 229 230 231 231 230 230 230 229 227 228 230 233 236 240 243 246 248 250 253 254 256 257 259 261 263 265 267 269 270 272 272 271 271 273
219 218 218 218 219 220 221 222 224 225 228 231 235 236 238 239 241 243 245 245 245 244 243 240 239 239 240 241 240 239 239 240 242 241 234 228 226 226 227 231 230 226 225 228 231 232 231 230 228 226 223 221 222 224 225 227 230 232 234 235 235 234 235 236 238 240 243 246 248 251 253 255 256 257 259 260 261 263 266 268 270 271 272 272 271 271 273
228 224 223 222 222 224 226 228 229 230 232 234 237 239 241 242 243 245 246 246 245 244 242 240 239 239 240 241 240 238 238 238 239 239 236 231 229 226 225 227 229 227 225 226 226 226 227 226 224 220 217 218 220 223 223 225 227 229 232 235 237 238 239 240 241 243 246 248 251 253 254 255 256 258 260 261 263 266 269 271 272 272 271 271 271 271 273
229 227 228 229 232 235 238 240 242 243 244 244 244 244 244 244 245 245 247 248 249 249 246 243 240 238 239 241 241 240 239 238 238 238 236 233 232 228 223 220 223 227 227 225 223 223 225 226 226 224 221 222 225 227 228 229 230 232 235 238 239 240 241 243 244 247 249 251 252 254 255 256 258 260 262 265 268 270 272 273 273 272 272 272 272 271 271
223 224 227 231 235 238 241 244 246 248 249 249 248 246 244 243 244 246 247 249 251 252 252 250 245 241 239 241 242 242 241 239 238 238 237 235 234 233 227 220 219 222 226 226 225 225 226 229 232 234 234 235 235 235 233 233 234 235 237 239 240 242 244 246 248 250 252 253 254 256 258 259 261 263 266 269 271 273 274 275 275 274 274 273 272 272 271
220 221 224 230 235 238 241 244 246 248 250 251 251 252 251 250 250 250 251 251 252 253 254 253 250 245 241 240 241 242 243 242 240 238 237 236 235 234 232 227 223 224 226 227 225 224 225 229 233 238 240 239 238 237 236 236 237 239 240 241 242 244 245 247 249 251 252 254 256 258 259 261 263 265 267 269 271 272 273 274 275 275 274 273 273 271 270
235 235 235 237 240 242 245 248 250 252 254 255 256 257 257 257 257 256 255 254 254 254 254 254 252 249 244 241 240 241 243 244 243 240 238 236 235 234 233 231 229 229 230 229 227 226 226 227 229 234 237 237 237 238 239 239 241 243 244 245 246 247 248 249 250 251 253 254 256 258 261 262 263 264 266 266 267 267 268 270 272 274 274 274 272 271 270
252 255 255 256 256 256 257 256 257 258 259 260 260 260 260 260 260 260 259 258 256 255 255 254 253 251 247 243 241 240 241 243 244 242 239 237 236 235 234 233 233 233 233 233 233 233 233 233 234 236 237 238 238 239 240 241 242 244 245 246 248 249 250 252 253 254 256 257 258 261 264 264 261 260 261 263 263 264 267 269 271 270 270 272 273 272 270
262 266 270 273 275 275 276 274 272 270 269 268 268 268 267 266 264 263 263 262 260 259 257 256 254 253 251 247 244 241 240 240 241 242 242 240 237 236 235 235 235 235 235 235 236 237 237 238 239 240 241 242 243 244 244 243 243 244 245 247 249 251 252 253 255 256 258 259 260 262 265 266 263 262 263 265 266 267 268 269 270 269 268 271 273 273 272
278 279 281 282 283 284 285 285 283 281 279 278 278 278 276 275 273 270 268 266 264 262 260 258 256 254 252 251 248 246 243 241 240 240 242 242 240 237 236 236 237 238 238 239 240 240 240 240 242 244 245 246 247 247 247 246 244 244 246 248 251 252 254 255 255 256 258 260 260 261 262 265 266 267 268 268 269 269 269 268 270 272 272 272 274 275 275
281 281 282 285 287 289 290 289 287 285 284 282 282 283 282 281 280 278 276 274 271 268 265 262 259 257 254 251 250 248 246 245 243 241 240 241 241 240 238 237 237 239 240 241 242 243 243 243 244 246 248 249 249 249 249 249 248 248 249 251 253 255 255 256 256 256 258 260 261 262 262 264 265 266 267 268 268 267 266 265 267 271 274 275 275 275 274
283 285 288 290 291 292 293 291 288 285 283 282 282 283 283 281 281 282 283 282 280 277 272 268 264 261 258 254 251 249 247 245 244 243 241 240 240 240 239 238 238 239 240 241 242 244 245 245 246 247 249 250 251 251 251 251 251 251 251 253 256 257 257 257 257 257 259 260 262 264 265 264 264 264 264 264 264 264 263 262 262 265 272 276 275 272 270
291 292 293 293 291 289 288 288 288 285 283 281 280 279 279 278 278 279 281 282 282 283 282 278 273 269 264 260 256 252 249 246 244 243 242 241 240 239 239 239 239 240 241 242 243 244 246 247 248 249 250 252 253 253 254 254 253 253 253 253 255 257 258 258 257 258 259 260 262 263 263 264 264 263 263 263 262 261 260 259 260 263 270 276 276 273 269
292 292 290 289 288 287 286 285 284 283 281 280 277 275 274 274 275 277 278 279 278 278 280 283 286 286 281 273 266 260 255 250 246 243 241 240 240 239 238 238 238 240 241 243 244 245 246 247 249 251 253 254 254 255 255 255 255 255 254 253 254 255 257 258 257 257 258 259 259 261 262 262 262 260 259 258 258 258 258 258 260 264 268 272 273 272 270
287 287 285 284 284 285 286 286 285 282 280 277 273 269 267 267 269 270 272 273 274 273 275 279 285 291 294 290 281 270 261 255 250 246 243 241 240 239 238 238 238 239 240 242 244 245 246 248 250 252 254 255 255 255 255 255 254 254 253 253 254 257 258 257 255 256 256 256 256 256 257 255 253 251 252 253 256 258 260 262 265 269 272 273 273 272 271
284 283 282 282 282 282 284 285 285 284 282 278 273 267 263 261 261 262 264 267 270 272 275 278 281 285 290 295 294 284 272 261 254 248 243 240 239 238 238 237 237 237 238 239 241 243 244 246 248 250 252 253 253 254 256 256 256 255 254 254 257 260 260 257 254 253 253 252 251 250 249 248 247 248 250 253 256 261 266 271 275 278 277 275 272 270 270
283 284 284 283 282 282 283 284 284 284 282 279 274 268 262 258 257 258 260 262 266 270 274 277 281 284 287 291 295 293 283 270 260 252 245 240 237 237 237 237 237 237 237 238 238 240 241 242 244 246 248 248 249 251 254 254 254 253 252 253 254 254 252 248 245 243 243 244 245 246 246 247 248 250 253 257 264 270 275 278 279 277 274 271 270 269 270
285 286 285 283 283 284 286 287 287 285 281 278 276 271 263 257 255 255 256 258 262 267 271 275 280 285 288 289 291 293 290 280 269 259 249 241 236 235 235 237 238 238 238 239 239 239 240 240 240 242 243 245 247 249 250 249 248 249 250 249 248 246 243 242 242 243 244 247 249 250 251 253 255 258 262 267 272 274 274 273 272 271 270 269 269 269 269
288 289 287 285 286 288 290 291 291 288 283 279 277 275 268 260 253 251 252 255 258 263 268 273 278 283 287 289 289 290 290 287 276 262 248 239 235 232 233 235 236 236 236 237 237 237 237 237 238 238 239 241 243 245 246 246 248 252 255 256 254 251 249 249 250 252 253 255 256 257 258 259 261 263 266 267 267 267 267 267 268 268 268 268 269 270 272
291 291 290 289 289 291 293 294 293 290 286 281 278 278 276 266 255 249 248 251 255 259 265 271 276 281 285 287 287 287 287 288 281 260 240 233 232 231 230 231 233 235 235 235 234 232 231 232 234 237 239 240 241 242 243 245 247 250 253 255 255 254 253 253 255 256 256 257 258 259 261 261 262 262 263 264 264 265 266 266 267 269 270 273 275 279 281
290 290 289 289 291 294 297 297 295 292 287 283 279 279 278 271 258 249 246 247 251 256 261 267 273 279 282 283 284 283 283 286 283 260 235 227 227 228 226 225 225 226 228 232 236 238 239 241 243 243 243 242 242 242 244 245 247 248 249 249 250 251 251 252 254 256 257 258 259 259 260 260 261 261 261 262 263 264 266 268 271 275 278 282 285 287 289
288 289 289 292 295 299 301 301 299 294 289 285 280 278 276 271 260 250 245 244 246 252 257 263 269 275 277 279 280 279 277 280 281 263 236 224 224 227 225 221 219 221 224 229 233 236 239 241 242 243 242 242 242 243 244 245 246 246 246 245 245 246 248 250 253 256 258 259 260 260 259 260 260 260 261 263 266 270 274 277 281 284 287 289 290 291 292
288 290 293 296 301 304 305 305 303 298 292 287 282 276 273 268 258 249 244 242 243 248 253 258 265 272 275 275 276 274 269 270 274 262 236 222 221 223 222 220 222 226 228 229 227 225 226 227 229 230 232 233 234 235 238 240 241 242 243 244 245 248 250 251 253 255 256 256 257 258 259 261 264 266 269 273 276 280 283 285 287 289 290 291 291 291 291
Height
5592 5596 5600 5605 5608 5613 5617 5621 5624 5628 5631 5635 5638 5643 5647 5650 5654 5658 5661 5665 5670 5673 5675 5677 5680 5682 5685 5689 5691 5693 5695 5699 5702 5704 5707 5709 5712 5714 5717 5719 5721 5724 5725 5726 5727 5729 5730 5731 5733 5734 5735 5736 5737 5739 5740 5742 5743 5743 5743 5744 5745 5747 5749 5751 5753 5755 5756 5757 5758 5759 5760 5761 5761 5762 5763 5764 5765 5766 5766 5767 5768 5769 5769 5770 5771 5772 5772
5593 5597 5601 5605 5609 5613 5617 5621 5625 5629 5632 5635 5639 5643 5646 5649 5654 5658 5660 5664 5668 5670 5673 5676 5678 5680 5683 5685 5688 5690 5693 5696 5699 5702 5704 5707 5710 5713 5715 5718 5720 5721 5723 5724 5725 5726 5728 5729 5731 5732 5733 5734 5736 5737 5739 5740 5741 5741 5741 5742 5743 5745 5747 5750 5751 5753 5754 5755 5756 5757 5758 5759 5760 5760 5761 5762 5763 5764 5764 5765 5766 5767 5767 5768 5769 5770 5770
5594 5598 5602 5606 5610 5614 5617 5621 5625 5628 5632 5635 5639 5642 5645 5648 5653 5656 5659 5662 5666 5670 5673 5675 5677 5679 5681 5683 5685 5687 5689 5692 5696 5699 5702 5706 5708 5711 5713 5716 5717 5719 5721 5722 5723 5724 5725 5727 5728 5729 5731 5733 5735 5736 5737 5738 5739 5739 5740 5740 5742 5743 5746 5748 5749 5751 5752 5754 5755 5756 5756 5757 5758 5758 5759 5760 5761 5762 5763 5764 5765 5765 5766 5766 5767 5768 5768
5595 5599 5603 5607 5610 5614 5618 5621 5624 5627 5631 5634 5637 5641 5644 5647 5651 5655 5658 5661 5666 5669 5672 5674 5676 5678 5680 5682 5683 5685 5687 5689 5693 5696 5700 5704 5707 5709 5711 5713 5715 5717 5718 5719 5720 5721 5722 5724 5725 5726 5728 5730 5732 5733 5734 5735 5736 5736 5737 5738 5740 5742 5744 5746 5747 5749 5750 5752 5753 5754 5755 5755 5756 5757 5757 5758 5759 5760 5761 5762 5763 5764 5764 5765 5765 5766 5766
5597 5600 5604 5608 5611 5615 5618 5621 5624 5627 5630 5633 5637 5640 5643 5646 5650 5653 5657 5661 5665 5668 5670 5673 5675 5677 5678 5680 5682 5683 5685 5687 5689 5693 5696 5701 5705 5707 5709 5711 5713 5714 5715 5716 5717 5718 5719 5720 5721 5722 5724 5726 5727 5729 5729 5730 5731 5733 5734 5735 5737 5739 5742 5743 5745 5747 5748 5750 5751 5752 5753 5754 5755 5756 5756 5757 5758 5759 5760 5761 5761 5762 5762 5763 5764 5764 5764
5598 5601 5605 5608 5612 5615 5617 5620 5624 5627 5630 5633 5636 5640 5643 5646 5649 5652 5656 5659 5662 5665 5668 5671 5673 5675 5676 5678 5680 5682 5683 5685 5688 5690 5693 5697 5701 5704 5706 5708 5709 5710 5711 5712 5713 5714 5715 5716 5717 5718 5720 5722 5724 5726 5726 5727 5728 5729 5730 5732 5734 5737 5739 5741 5742 5744 5746 5748 5749 5750 5751 5752 5754 5754 5755 5755 5756 5757 5758 5759 5759 5760 5760 5761 5761 5761 5761
5599 5602 5605 5608 5611 5614 5617 5620 5623 5626 5629 5633 5636 5639 5642 5645 5648 5651 5654 5658 5661 5664 5667 5669 5671 5672 5674 5676 5678 5680 5682 5685 5688 5690 5692 5694 5696 5699 5702 5703 5705 5706 5708 5709 5711 5712 5712 5713 5714 5715 5717 5719 5721 5723 5724 5725 5726 5726 5727 5728 5731 5733 5736 5738 5740 5742 5744 5745 5746 5748 5749 5750 5752 5752 5753 5754 5755 5756 5756 5756 5757 5758 5758 5758 5758 5757 5757
5600 5603 5606 5609 5612 5614 5617 5620 5623 5626 5629 5632 5635 5639 5642 5645 5648 5650 5653 5656 5659 5662 5665 5668 5669 5671 5673 5675 5677 5679 5682 5684 5687 5689 5691 5693 5694 5697 5699 5701 5703 5705 5706 5708 5709 5710 5710 5710 5711 5713 5715 5716 5718 5720 5721 5722 5723 5724 5724 5725 5728 5731 5733 5735 5737 5739 5741 5743 5744 5745 5746 5748 5749 5750 5750 5751 5753 5753 5753 5754 5754 5755 5755 5755 5755 5754 5754
5601 5604 5606 5609 5612 5615 5617 5620 5623 5626 5629 5632 5635 5638 5641 5644 5647 5649 5651 5654 5657 5660 5663 5666 5668 5670 5672 5675 5677 5678 5681 5683 5685 5687 5690 5692 5694 5697 5699 5700 5702 5704 5705 5707 5708 5708 5709 5709 5710 5711 5712 5714 5715 5717 5718 5718 5718 5720 5721 5724 5726 5728 5730 5732 5734 5737 5738 5740 5741 5742 5744 5745 5746 5747 5748 5749 5750 5750 5750 5751 5752 5752 5752 5752 5751 5751 5751
5602 5605 5607 5610 5613 5615 5618 5620 5623 5626 5629 5632 5634 5638 5640 5643 5646 5648 5651 5653 5656 5658 5661 5664 5666 5668 5671 5674 5676 5677 5679 5680 5682 5684 5686 5689 5692 5694 5696 5698 5699 5701 5702 5704 5705 5706 5707 5708 5709 5709 5710 5711 5712 5713 5714 5715 5715 5716 5719 5722 5724 5725 5727 5730 5732 5734 5736 5737 5738 5740 5741 5742 5743 5744 5745 5745 5746 5746 5747 5748 5749 5749 5749 5749 5749 5748 5749
5603 5606 5608 5610 5613 5616 5618 5621 5623 5626 5629 5631 5633 5637 5640 5642 5645 5647 5650 5652 5655 5657 5659 5662 5664 5667 5670 5672 5674 5675 5677 5678 5680 5682 5684 5687 5689 5691 5693 5694 5695 5697 5699 5701 5702 5704 5704 5705 5706 5707 5707 5709 5710 5711 5711 5711 5711 5713 5716 5719 5720 5722 5724 5728 5731 5732 5733 5735 5737 5738 5738 5740 5740 5741 5742 5742 5743 5743 5744 5745 5745 5745 5746 5747 5747 5746 5746
5604 5606 5608 5611 5613 5616 5618 5621 5623 5626 5628 5630 5633 5637 5639 5641 5643 5646 5649 5651 5654 5656 5658 5660 5662 5664 5666 5668 5670 5672 5674 5676 5678 5680 5682 5684 5686 5688 5689 5691 5692 5694 5697 5698 5699 5700 5701 5702 5702 5703 5705 5706 5707 5708 5708 5707 5708 5710 5713 5715 5716 5718 5722 5726 5728 5728 5729 5732 5734 5734 5736 5737 5737 5738 5739 5740 5740 5740 5741 5742 5742 5743 5743 5744 5744 5744 5744
5604 5606 5609 5611 5614 5616 5618 5620 5623 5625 5627 5630 5633 5636 5637 5639 5642 5645 5647 5650 5652 5654 5656 5658 5659 5661 5663 5665 5667 5670 5673 5675 5677 5679 5680 5682 5684 5685 5687 5688 5689 5691 5693 5695 5696 5697 5698 5699 5699 5700 5702 5703 5704 5704 5704 5704 5705 5707 5709 5711 5712 5715 5718 5722 5723 5724 5726 5729 5729 5730 5732 5734 5734 5736 5737 5737 5737 5737 5738 5739 5740 5740 5741 5741 5741 5742 5742
5604 5606 5609 5611 5613 5615 5617 5619 5621 5623 5625 5628 5631 5633 5635 5638 5641 5644 5646 5648 5650 5652 5655 5656 5657 5658 5660 5662 5665 5668 5670 5673 5675 5677 5678 5680 5681 5683 5684 5685 5686 5688 5690 5692 5693 5694 5694 5695 5696 5697 5698 5699 5699 5700 5700 5703 5705 5705 5706 5707 5709 5711 5714 5717 5718 5720 5722 5725 5725 5726 5729 5730 5731 5733 5734 5733 5734 5735 5736 5736 5737 5737 5738 5739 5739 5739 5739
5605 5607 5609 5611 5613 5615 5617 5618 5619 5621 5624 5627 5629 5631 5633 5636 5639 5642 5644 5647 5648 5651 5653 5654 5655 5656 5658 5660 5662 5665 5667 5670 5672 5673 5675 5676 5678 5680 5681 5682 5683 5685 5687 5688 5690 5690 5691 5692 5693 5694 5694 5695 5696 5697 5698 5701 5703 5703 5704 5706 5707 5709 5712 5714 5715 5716 5719 5721 5722 5723 5726 5727 5728 5729 5730 5730 5731 5732 5733 5734 5734 5735 5736 5736 5736 5736 5736
5605 5608 5610 5611 5612 5614 5616 5617 5619 5621 5623 5625 5627 5629 5632 5634 5637 5639 5642 5644 5646 5648 5650 5651 5653 5655 5656 5658 5660 5662 5665 5667 5669 5670 5671 5672 5674 5676 5678 5679 5680 5682 5683 5685 5686 5687 5688 5689 5691 5691 5691 5692 5693 5695 5696 5698 5699 5700 5702 5703 5705 5708 5710 5712 5713 5714 5716 5718 5719 5720 5722 5723 5724 5725 5727 5728 5729 5729 5730 5731 5732 5732 5733 5733 5733 5734 5733
5605 5607 5610 5611 5612 5614 5615 5617 5618 5620 5622 5624 5626 5628 5630 5632 5634 5637 5639 5642 5644 5645 5647 5648 5650 5652 5653 5655 5657 5660 5662 5664 5665 5667 5668 5669 5670 5672 5674 5676 5677 5678 5680 5681 5682 5684 5685 5686 5687 5688 5689 5690 5691 5692 5693 5695 5696 5698 5699 5700 5702 5704 5706 5708 5710 5711 5713 5715 5717 5718 5718 5719 5721 5722 5724 5725 5726 5727 5727 5728 5728 5729 5730 5730 5731 5731 5731
5605 5607 5609 5611 5612 5613 5615 5616 5617 5619 5621 5623 5624 5626 5628 5630 5632 5634 5636 5639 5641 5642 5644 5645 5647 5649 5651 5653 5654 5656 5658 5660 5662 5663 5665 5666 5667 5668 5670 5672 5673 5675 5676 5677 5679 5680 5681 5682 5684 5685 5686 5688 5689 5689 5690 5692 5693 5694 5695 5697 5699 5700 5701 5703 5706 5708 5709 5712 5714 5715 5715 5716 5718 5720 5721 5722 5723 5724 5724 5725 5726 5726 5727 5728 5728 5728 5728
5605 5607 5608 5610 5611 5612 5613 5615 5617 5618 5620 5621 5622 5624 5626 5628 5629 5631 5633 5635 5637 5639 5641 5642 5644 5646 5648 5650 5651 5653 5655 5657 5658 5660 5661 5662 5663 5664 5665 5667 5668 5670 5672 5674 5676 5677 5678 5679 5680 5682 5683 5685 5686 5687 5688 5689 5690 5691 5692 5693 5695 5697 5698 5700 5702 5705 5707 5709 5710 5711 5712 5713 5715 5717 5718 5719 5720 5721 5722 5723 5723 5724 5724 5725 5725 5725 5724
5604 5605 5607 5608 5609 5611 5612 5614 5615 5617 5618 5619 5620 5622 5623 5625 5627 5628 5630 5632 5634 5636 5637 5639 5641 5643 5644 5646 5648 5650 5651 5653 5654 5656 5657 5658 5659 5660 5661 5662 5664 5666 5669 5671 5673 5674 5675 5676 5677 5678 5680 5682 5683 5684 5685 5686 5687 5688 5689 5690 5692 5693 5694 5696 5699 5701 5703 5705 5706 5708 5709 5710 5712 5714 5715 5716 5717 5718 5719 5720 5720 5720 5721 5721 5721 5721 5720
5603 5604 5606 5607 5608 5609 5610 5612 5614 5615 5616 5617 5619 5620 5621 5623 5624 5626 5627 5629 5631 5633 5634 5636 5638 5640 5641 5643 5645 5646 5647 5649 5650 5652 5653 5653 5654 5655 5657 5658 5660 5662 5665 5667 5669 5671 5672 5673 5674 5675 5676 5678 5680 5682 5682 5683 5684 5685 5686 5688 5689 5690 5691 5692 5695 5697 5699 5700 5702 5704 5705 5707 5709 5711 5712 5713 5714 5715 5716 5716 5716 5717 5717 5717 5717 5717 5717
5601 5603 5604 5605 5606 5608 5609 5610 5612 5614 5615 5616 5617 5619 5620 5621 5622 5624 5625 5627 5628 5630 5632 5633 5635 5637 5638 5640 5641 5642 5644 5645 5646 5647 5648 5649 5650 5651 5653 5654 5656 5659 5661 5664 5665 5667 5668 5670 5671 5672 5673 5675 5677 5678 5679 5680 5681 5682 5684 5685 5686 5687 5688 5689 5691 5694 5695 5697 5698 5700 5702 5704 5706 5708 5709 5710 5711 5712 5713 5713 5713 5714 5714 5714 5714 5714 5713
5600 5602 5603 5604 5605 5606 5608 5609 5611 5612 5614 5615 5616 5617 5618 5620 5621 5622 5623 5625 5626 5628 5629 5631 5633 5634 5636 5637 5638 5639 5640 5641 5643 5644 5645 5646 5647 5648 5650 5652 5653 5655 5656 5658 5660 5662 5664 5666 5667 5668 5670 5672 5674 5675 5677 5678 5679 5680 5681 5682 5683 5684 5686 5687 5689 5691 5692 5694 5696 5698 5700 5702 5704 5705 5706 5707 5708 5709 5709 5710 5710 5711 5711 5711 5711 5710 5710
5599 5601 5602 5603 5604 5605 5606 5608 5609 5611 5612 5613 5615 5616 5617 5618 5619 5620 5622 5623 5625 5626 5627 5629 5630 5632 5633 5634 5635 5636 5637 5638 5639 5641 5642 5643 5644 5646 5647 5648 5649 5650 5651 5653 5655 5657 5660 5662 5663 5665 5666 5669 5670 5672 5674 5676 5677 5677 5679 5679 5680 5682 5683 5685 5687 5688 5690 5692 5694 5696 5698 5699 5700 5702 5703 5704 5705 5706 5706 5707 5707 5707 5708 5707 5707 5707 5707
5598 5600 5601 5602 5603 5604 5606 5607 5608 5609 5610 5612 5613 5614 5615 5616 5617 5619 5620 5621 5622 5624 5625 5627 5628 5629 5630 5631 5632 5633 5634 5635 5636 5638 5639 5640 5641 5643 5644 5645 5646 5647 5647 5649 5651 5653 5656 5658 5660 5661 5663 5665 5667 5668 5671 5673 5673 5675 5676 5676 5677 5679 5680 5682 5684 5686 5688 5690 5692 5693 5695 5696 5698 5699 5700 5701 5702 5703 5703 5703 5704 5704 5704 5704 5704 5703 5703
5597 5598 5599 5601 5602 5603 5604 5605 5606 5607 5608 5610 5611 5612 5613 5615 5616 5617 5618 5619 5620 5622 5623 5624 5625 5627 5628 5629 5629 5630 5631 5632 5634 5635 5636 5637 5638 5639 5640 5641 5643 5644 5645 5646 5648 5650 5652 5654 5656 5658 5660 5661 5662 5664 5667 5669 5670 5671 5672 5672 5673 5675 5678 5679 5682 5684 5686 5687 5689 5691 5692 5694 5695 5696 5697 5698 5698 5699 5699 5700 5700 5700 5700 5700 5700 5700 5699
5596 5597 5598 5599 5600 5601 5602 5603 5604 5606 5607 5608 5609 5610 5611 5613 5614 5615 5616 5617 5618 5619 5620 5621 5622 5624 5625 5626 5627 5628 5629 5630 5631 5632 5633 5634 5635 5636 5637 5638 5639 5641 5642 5644 5645 5646 5648 5651 5653 5654 5656 5657 5658 5660 5662 5664 5666 5667 5668 5669 5670 5673 5675 5677 5679 5681 5683 5684 5686 5688 5689 5690 5692 5693 5694 5694 5695 5695 5696 5696 5697 5696 5696 5696 5696 5696 5695
5595 5596 5597 5598 5599 5600 5601 5602 5603 5604 5605 5606 5608 5609 5610 5611 5612 5613 5614 5615 5616 5617 5618 5618 5619 5621 5622 5623 5624 5625 5626 5627 5628 5629 5631 5632 5633 5634 5635 5636 5637 5638 5640 5641 5642 5643 5645 5646 5649 5651 5652 5653 5654 5656 5658 5661 5661 5661 5663 5666 5668 5670 5672 5674 5676 5678 5680 5681 5683 5684 5686 5687 5688 5689 5690 5691 5691 5692 5692 5693 5693 5692 5692 5692 5691 5691 5691
5594 5595 5596 5597 5598 5599 5600 5601 5602 5603 5604 5605 5606 5607 5608 5609 5610 5610 5611 5612 5613 5614 5615 5616 5617 5618 5619 5620 5621 5622 5623 5624 5625 5627 5628 5629 5630 5631 5632 5633 5634 5635 5637 5638 5640 5640 5641 5643 5645 5647 5649 5650 5651 5652 5655 5657 5658 5659 5661 5663 5666 5668 5670 5672 5674 5675 5677 5678 5680 5681 5682 5684 5685 5686 5686 5687 5688 5688 5689 5689 5689 5688 5688 5688 5687 5687 5687
5593 5594 5595 5596 5597 5598 5599 5601 5601 5602 5603 5604 5604 5605 5606 5607 5607 5608 5609 5609 5610 5611 5612 5613 5614 5615 5616 5617 5618 5619 5620 5621 5622 5623 5625 5627 5628 5629 5629 5630 5631 5633 5634 5635 5636 5637 5639 5640 5642 5644 5646 5648 5648 5649 5651 5654 5656 5658 5660 5662 5663 5665 5667 5669 5671 5673 5674 5675 5676 5678 5679 5680 5682 5682 5683 5683 5684 5684 5684 5684 5684 5684 5684 5684 5683 5683 5683
5592 5593 5594 5595 5596 5597 5598 5599 5600 5601 5601 5602 5602 5603 5603 5604 5605 5606 5607 5607 5608 5609 5610 5611 5611 5612 5613 5614 5615 5616 5617 5618 5619 5620 5622 5624 5625 5626 5627 5628 5629 5630 5632 5632 5633 5635 5636 5638 5639 5641 5642 5644 5646 5647 5649 5651 5653 5655 5657 5659 5661 5663 5665 5666 5668 5669 5670 5672 5673 5674 5676 5677 5678 5678 5679 5679 5679 5679 5680 5680 5680 5680 5680 5680 5680 5680 5680
5591 5592 5593 5594 5595 5596 5597 5597 5598 5599 5599 5600 5600 5601 5602 5602 5603 5604 5605 5605 5606 5607 5608 5608 5609 5610 5610 5611 5612 5613 5614 5615 5616 5617 5619 5620 5622 5623 5625 5626 5626 5628 5629 5630 5631 5632 5633 5635 5636 5637 5638 5640 5643 5645 5646 5648 5650 5652 5654 5656 5658 5660 5661 5663 5664 5665 5667 5668 5669 5670 5672 5673 5673 5674 5674 5674 5674 5675 5675 5676 5676 5676 5676 5676 5676 5676 5676
5590 5591 5592 5593 5594 5594 5595 5596 5596 5597 5598 5598 5599 5599 5600 5600 5601 5602 5603 5603 5604 5605 5605 5606 5607 5607 5608 5608 5609 5610 5611 5612 5613 5614 5616 5617 5619 5620 5622 5623 5624 5625 5626 5627 5628 5629 5630 5632 5633 5634 5636 5638 5640 5642 5644 5646 5648 5650 5651 5653 5655 5656 5657 5659 5660 5661 5662 5664 5665 5666 5667 5668 5668 5669 5669 5669 5670 5671 5671 5671 5671 5671 5671 5671 5672 5672 5671
5589 5590 5591 5591 5592 5593 5593 5594 5594 5595 5596 5596 5596 5597 5597 5598 5599 5600 5600 5601 5602 5602 5603 5603 5604 5605 5605 5605 5606 5607 5608 5609 5610 5611 5612 5614 5616 5617 5618 5620 5621 5622 5623 5624 5625 5627 5628 5629 5630 5632 5634 5636 5637 5639 5642 5643 5645 5647 5648 5649 5651 5652 5653 5655 5656 5657 5658 5660 5661 5662 5662 5663 5664 5664 5664 5665 5665 5666 5666 5667 5667 5667 5667 5667 5667 5667 5667
5589 5589 5590 5590 5591 5591 5592 5592 5593 5593 5594 5594 5594 5595 5595 5596 5597 5597 5598 5599 5599 5600 5600 5601 5601 5602 5602 5603 5603 5604 5605 5605 5606 5607 5609 5610 5612 5613 5615 5616 5618 5619 5621 5622 5623 5624 5625 5627 5628 5629 5631 5633 5635 5637 5639 5640 5642 5643 5644 5646 5647 5648 5649 5651 5652 5653 5654 5656 5657 5657 5658 5658 5659 5659 5660 5660 5661 5661 5662 5662 5662 5662 5663 5663 5663 5663 5663
5588 5588 5589 5589 5590 5590 5591 5591 5591 5592 5592 5592 5592 5593 5593 5594 5594 5595 5595 5596 5597 5597 5598 5598 5599 5599 5600 5600 5601 5601 5602 5602 5603 5604 5605 5606 5608 5610 5611 5613 5614 5615 5617 5618 5620 5621 5622 5624 5625 5627 5628 5630 5632 5634 5635 5637 5638 5639 5640 5641 5642 5644 5645 5646 5647 5649 5650 5651 5652 5652 5653 5653 5654 5654 5655 5656 5656 5657 5657 5657 5657 5658 5658 5658 5658 5658 5658
5588 5588 5588 5588 5589 5589 5589 5589 5590 5590 5590 5590 5590 5591 5591 5591 5592 5592 5593 5593 5594 5594 5595 5595 5596 5596 5597 5598 5598 5598 5599 5600 5600 5601 5602 5602 5604 5605 5607 5609 5611 5612 5613 5615 5616 5617 5619 5621 5622 5624 5625 5627 5628 5630 5632 5634 5635 5636 5636 5637 5638 5640 5641 5642 5643 5644 5645 5646 5647 5647 5648 5648 5649 5650 5651 5651 5652 5653 5653 5653 5653 5653 5654 5654 5654 5654 5654
5587 5587 5587 5587 5587 5587 5587 5588 5588 5588 5588 5588 5588 5588 5588 5589 5589 5589 5590 5590 5590 5591 5592 5592 5593 5593 5594 5595 5595 5595 5596 5597 5597 5598 5599 5599 5600 5601 5603 5605 5606 5608 5609 5611 5612 5614 5616 5617 5619 5620 5622 5623 5625 5627 5628 5630 5631 5632 5633 5634 5635 5636 5637 5638 5639 5640 5640 5641 5642 5644 5644 5645 5645 5646 5647 5647 5648 5648 5649 5649 5649 5649 5649 5649 5649 5649 5649
5586 5586 5586 5586 5586 5586 5586 5586 5586 5586 5586 5586 5585 5586 5586 5586 5586 5586 5587 5587 5587 5588 5588 5589 5589 5590 5590 5591 5592 5592 5593 5593 5594 5595 5596 5596 5597 5598 5599 5600 5602 5604 5605 5607 5609 5610 5612 5614 5615 5616 5618 5619 5621 5623 5624 5626 5627 5628 5629 5630 5631 5632 5634 5635 5635 5636 5636 5637 5638 5640 5641 5641 5641 5642 5642 5643 5643 5644 5644 5644 5644 5645 5644 5644 5644 5644 5644
5585 5585 5585 5585 5585 5585 5585 5584 5584 5584 5583 5583 5583 5583 5583 5583 5583 5583 5584 5584 5584 5584 5584 5585 5585 5586 5586 5587 5588 5588 5589 5590 5591 5591 5592 5593 5594 5595 5595 5596 5598 5599 5601 5603 5605 5606 5608 5609 5611 5612 5613 5615 5616 5618 5619 5621 5623 5624 5625 5626 5627 5628 5629 5630 5631 5631 5632 5633 5635 5636 5636 5637 5637 5638 5638 5638 5639 5639 5639 5639 5639 5640 5640 5639 5639 5639 5639
5584 5584 5584 5584 5583 5583 5583 5583 5582 5582 5582 5581 5581 5581 5581 5581 5581 5581 5581 5581 5581 5581 5581 5582 5582 5582 5583 5583 5584 5584 5585 5586 5587 5588 5589 5589 5590 5591 5592 5594 5595 5596 5597 5598 5600 5601 5603 5605 5607 5608 5609 5611 5612 5613 5615 5616 5618 5619 5621 5622 5623 5624 5625 5625 5626 5627 5628 5629 5631 5631 5632 5632 5633 5633 5633 5633 5633 5633 5634 5634 5634 5634 5635 5635 5634 5634 5634
5582 5582 5582 5582 5582 5581 5581 5581 5581 5580 5580 5579 5579 5579 5579 5579 5579 5579 5579 5580 5579 5579 5579 5579 5579 5579 5579 5579 5580 5580 5581 5581 5582 5583 5585 5586 5587 5588 5589 5590 5591 5592 5593 5595 5596 5597 5599 5601 5602 5604 5605 5607 5608 5609 5610 5611 5612 5614 5616 5618 5619 5619 5620 5621 5622 5623 5624 5625 5626 5627 5627 5627 5628 5628 5628 5628 5628 5628 5629 5629 5629 5629 5630 5630 5630 5629 5629
5580 5580 5580 5580 5579 5579 5579 5579 5579 5578 5578 5577 5577 5577 5577 5577 5577 5577 5577 5577 5577 5577 5577 5577 5577 5577 5577 5576 5576 5576 5577 5577 5578 5579 5580 5581 5583 5584 5586 5587 5588 5589 5590 5592 5593 5594 5596 5597 5599 5600 5602 5603 5604 5604 5605 5606 5607 5609 5611 5612 5613 5614 5615 5616 5617 5618 5619 5621 5621 5622 5622 5623 5623 5623 5623 5623 5623 5623 5624 5624 5624 5624 5624 5625 5625 5624 5624
5579 5579 5578 5578 5577 5577 5577 5576 5576 5576 5576 5575 5575 5575 5575 5575 5575 5575 5575 5575 5575 5575 5575 5575 5575 5575 5574 5574 5574 5573 5573 5573 5573 5574 5575 5577 5578 5580 5581 5583 5584 5586 5587 5589 5590 5592 5593 5594 5595 5597 5598 5599 5599 5600 5601 5602 5603 5604 5605 5606 5607 5609 5610 5611 5612 5613 5614 5615 5616 5617 5617 5617 5618 5618 5618 5619 5619 5619 5619 5619 5619 5620 5620 5620 5620 5620 5620
5577 5577 5576 5576 5575 5575 5574 5574 5573 5573 5573 5573 5573 5573 5573 5573 5573 5573 5573 5573 5573 5573 5573 5573 5573 5572 5572 5572 5571 5570 5570 5570 5570 5570 5571 5572 5574 5575 5577 5579 5580 5582 5584 5585 5587 5588 5589 5591 5592 5593 5594 5595 5595 5596 5597 5598 5598 5599 5601 5602 5603 5604 5605 5606 5607 5608 5609 5610 5611 5611 5612 5612 5613 5613 5614 5614 5615 5615 5615 5615 5615 5615 5615 5616 5616 5616 5615
5574 5574 5574 5573 5573 5572 5572 5571 5571 5571 5570 5570 5569 5569 5569 5570 5570 5570 5570 5570 5570 5570 5570 5570 5570 5570 5569 5569 5568 5568 5567 5567 5566 5566 5567 5568 5569 5571 5573 5574 5576 5578 5580 5582 5583 5584 5586 5587 5588 5590 5591 5592 5592 5593 5594 5595 5596 5597 5598 5599 5600 5600 5601 5602 5603 5604 5604 5605 5606 5607 5607 5608 5609 5609 5609 5610 5610 5610 5610 5610 5611 5611 5611 5611 5611 5611 5610
5572 5572 5571 5571 5570 5570 5569 5569 5568 5568 5567 5567 5566 5566 5566 5566 5567 5567 5567 5567 5568 5568 5568 5567 5567 5567 5567 5566 5566 5565 5564 5564 5563 5563 5563 5564 5565 5567 5569 5571 5573 5574 5576 5578 5580 5581 5583 5584 5585 5586 5588 5589 5590 5591 5592 5593 5594 5594 5595 5596 5597 5598 5598 5599 5600 5601 5601 5602 5602 5603 5604 5604 5605 5605 5606 5606 5606 5606 5606 5606 5607 5607 5607 5606 5606 5605 5605
5570 5569 5569 5568 5568 5567 5566 5566 5565 5565 5564 5564 5563 5563 5563 5563 5563 5563 5564 5564 5565 5565 5565 5565 5564 5564 5564 5563 5563 5562 5562 5561 5561 5560 5560 5561 5562 5564 5566 5567 5569 5571 5573 5574 5576 5578 5579 5581 5582 5583 5584 5586 5587 5588 5589 5590 5591 5591 5592 5593 5594 5595 5595 5596 5597 5598 5598 5599 5599 5600 5601 5601 5602 5602 5602 5602 5602 5602 5602 5602 5602 5602 5602 5602 5601 5601 5601
5567 5567 5566 5566 5565 5565 5564 5563 5563 5562 5561 5560 5560 5560 5559 5559 5560 5560 5561 5561 5562 5562 5562 5562 5562 5562 5561 5561 5560 5559 5559 5559 5558 5558 5558 5559 5560 5561 5563 5564 5566 5568 5569 5571 5573 5574 5576 5577 5579 5580 5581 5582 5584 5585 5586 5587 5587 5588 5589 5590 5590 5591 5592 5593 5594 5595 5595 5596 5596 5597 5597 5598 5598 5598 5598 5599 5599 5599 5599 5599 5599 5599 5599 5598 5598 5598 5597
5565 5565 5564 5563 5563 5562 5561 5561 5560 5559 5558 5557 5557 5556 5556 5556 5556 5557 5557 5558 5559 5559 5559 5559 5559 5559 5558 5558 5557 5557 5557 5556 5556 5556 5556 5557 5558 5559 5561 5562 5563 5565 5567 5568 5570 5571 5573 5574 5576 5577 5578 5579 5580 5582 5583 5584 5584 5585 5586 5587 5588 5588 5589 5590 5591 5591 5592 5593 5593 5594 5594 5595 5595 5595 5595 5595 5596 5596 5596 5596 5596 5595 5595 5595 5594 5594 5593
5563 5563 5562 5561 5561 5560 5559 5558 5557 5556 5555 5554 5554 5553 5553 5553 5553 5553 5554 5555 5556 5556 5556 5556 5556 5556 5556 5555 5555 5555 5554 5554 5554 5554 5554 5554 5556 5557 5559 5560 5562 5563 5565 5566 5568 5569 5571 5572 5573 5574 5576 5577 5578 5579 5580 5581 5582 5583 5583 5584 5585 5586 5587 5587 5588 5589 5589 5590 5590 5591 5591 5592 5592 5592 5592 5592 5592 5592 5592 5592 5592 5592 5591 5591 5591 5590 5589
5561 5560 5560 5559 5559 5558 5557 5555 5554 5553 5552 5551 5551 5550 5550 5550 5550 5551 5551 5552 5553 5554 5554 5553 5553 5553 5553 5553 5553 5552 5552 5552 5552 5552 5552 5553 5555 5556 5557 5559 5560 5561 5563 5564 5565 5567 5568 5569 5571 5572 5573 5574 5576 5577 5578 5579 5579 5580 5581 5582 5583 5583 5584 5585 5586 5586 5587 5588 5588 5588 5589 5589 5589 5589 5589 5589 5589 5589 5589 5589 5588 5588 5587 5587 5587 5586 5585